Location: Ago
(8.4667°N, 4.4833°E)
Time: 23:24:29
(UTC+00:00)

Helios 1A Rocket - Pass Details

Date: 18 September 2020
Orbit: 563 x 586 km, 98.3° (Epoch: 20 October)

Event Time Altitude Azimuth Distance (km) Brightness Sun altitude
Rises 17:56:10 0° 154° (SSE) 2,762 6.1 -4.8°
Reaches altitude 10° 17:58:24 10° 146° (SE) 1,868 5.2 -5.3°
Maximum altitude 18:02:11 39° 77° (ENE) 871 3.4 -6.3°
Drops below altitude 10° 18:05:58 10° 8° (N) 1,878 5.5 -7.2°
Sets 18:08:13 0° 0° (N) 2,779 6.4 -7.8°
